GFSWCAN_850_thetae_027.txt.gz
Theta_e
300 299 298 299 298 297 299 299 296 295 294 296 294 294 295 295 296 297 305 299 305 309 310 309 311 314 315 316 320 321 320 320 323 323 324 324 326 326 327 328 330 331 330 328 327 328 329 332 337 337 348 348 347 347
300 300 299 297 298 298 299 299 296 295 294 296 295 294 294 295 295 297 306 305 304 304 308 307 307 309 310 313 315 318 319 323 319 322 323 325 327 327 330 329 329 334 329 331 328 329 340 339 348 347 346 348 348 347
300 300 299 297 297 298 298 297 297 295 294 295 295 294 294 294 296 297 304 306 307 308 310 309 312 310 307 306 311 315 316 322 324 325 327 327 328 331 330 330 330 331 331 335 333 333 337 340 341 342 345 346 345 344
300 299 299 297 297 298 297 298 297 297 294 294 295 294 294 294 297 297 304 307 307 308 311 315 312 312 312 311 307 310 316 321 322 321 322 326 326 326 330 331 334 335 335 331 331 335 337 338 341 342 344 343 343 342
299 298 297 297 297 297 298 298 297 296 294 294 295 294 294 295 299 300 305 307 307 309 313 314 313 313 313 312 310 309 312 316 318 319 321 323 323 326 327 327 329 331 335 336 336 338 340 341 341 341 341 343 341 341
297 296 296 297 297 297 297 298 297 295 294 294 295 294 294 296 301 305 310 309 308 308 311 316 315 315 315 314 311 311 312 313 315 317 318 319 323 323 325 327 326 330 330 331 333 335 337 339 340 340 341 341 340 340
296 296 296 296 296 296 297 297 296 294 294 295 295 294 295 300 302 307 309 309 306 308 312 315 316 316 317 317 316 316 315 315 315 315 317 318 320 320 323 325 329 328 328 328 330 333 336 335 336 337 337 338 337 339
298 296 296 296 296 296 297 296 294 294 294 295 294 297 300 303 303 306 308 306 306 309 311 316 317 316 316 317 317 316 316 315 316 316 317 318 319 320 321 320 322 325 326 327 329 328 331 333 333 334 333 335 335 336
299 296 295 297 297 297 297 295 294 294 294 294 298 303 305 307 309 309 306 306 307 309 313 314 318 320 316 317 319 317 317 318 317 318 317 318 319 319 320 319 319 322 323 325 326 327 327 330 331 331 332 331 333 335
300 298 296 296 296 298 297 295 294 295 294 297 303 307 309 309 307 306 309 310 309 310 311 314 315 318 315 317 317 319 319 319 322 319 318 318 319 318 318 319 320 321 321 322 323 325 326 329 328 328 329 331 331 334
300 297 297 298 296 299 297 295 295 294 296 303 306 309 308 306 309 310 311 312 312 313 313 313 314 317 315 319 320 319 321 321 321 321 320 320 320 320 318 320 320 320 320 321 322 324 325 326 327 325 325 329 331 331
300 297 298 298 297 298 297 295 295 296 303 305 306 307 308 309 310 311 312 312 313 315 314 315 315 315 317 317 319 319 318 319 318 320 320 320 326 323 322 321 320 320 320 320 321 322 323 324 324 325 324 324 329 331
299 297 298 297 297 297 296 295 294 297 300 304 306 308 308 310 313 311 313 314 316 316 317 317 317 316 317 318 319 320 319 318 318 320 320 325 321 320 320 319 319 319 320 320 321 321 322 323 323 324 324 323 326 329
300 298 298 298 297 297 295 295 293 295 304 306 306 306 310 310 312 313 314 315 315 316 316 315 315 315 317 320 318 320 320 319 320 320 324 321 320 319 318 317 318 319 320 320 321 321 322 323 323 323 324 324 323 328
299 298 299 297 297 296 295 294 294 300 305 307 306 310 308 310 311 312 313 314 314 315 315 315 315 315 315 317 318 319 320 321 321 322 321 319 318 318 316 315 316 317 318 319 320 321 322 323 324 325 324 323 323 328
299 298 299 297 296 295 295 294 296 303 306 307 308 310 310 311 311 311 312 315 315 314 314 314 315 315 316 316 318 318 319 320 320 318 317 317 316 317 316 315 315 315 317 318 319 320 322 324 325 326 325 326 327 329
299 300 298 296 295 295 294 300 302 305 307 309 309 309 310 311 312 314 315 315 313 313 314 313 314 316 315 315 316 317 320 319 317 316 316 317 316 314 314 315 315 317 319 318 318 319 324 326 327 326 327 329 330 329
302 299 296 295 295 295 299 304 305 307 308 308 309 310 312 313 314 314 314 313 313 312 313 314 314 315 315 315 316 318 316 316 315 316 316 314 314 314 314 314 315 317 317 318 319 320 322 323 323 324 325 324 325 326
300 296 295 296 300 303 304 305 305 308 309 310 311 312 312 313 312 312 312 312 312 312 312 313 314 315 315 315 315 315 314 314 315 314 313 314 314 314 315 316 318 319 321 321 321 320 320 321 321 321 321 322 322 323
295 295 296 300 303 305 306 307 306 308 309 311 310 310 311 310 310 310 310 310 310 310 314 314 314 316 315 315 314 314 314 313 313 313 313 313 314 314 316 318 319 320 320 320 319 320 321 321 321 322 320 321 321 320
301 300 300 301 304 305 306 306 307 308 309 310 310 310 309 310 311 310 310 309 310 312 313 313 313 314 314 313 313 312 313 313 314 314 313 314 314 315 316 317 318 317 317 317 317 317 318 318 318 319 318 318 318 317
301 300 303 302 305 305 306 306 308 308 309 309 309 309 310 310 310 308 305 308 310 312 313 313 312 310 311 313 314 314 314 313 314 313 313 314 315 315 315 316 316 316 316 316 316 316 316 316 316 316 316 315 314 313
300 302 304 304 304 304 304 306 308 308 309 309 309 309 309 308 305 305 306 306 307 308 309 311 312 312 313 313 313 313 313 313 313 314 315 315 315 315 315 316 315 316 316 315 316 316 315 315 314 314 313 312 312 313
300 304 304 304 305 305 306 308 307 307 308 308 308 308 307 305 304 305 307 307 309 311 313 313 313 312 313 313 313 313 313 313 314 315 315 315 316 316 315 316 316 315 314 315 315 314 314 314 313 315 315 315 313 311
302 303 304 302 306 307 308 307 307 306 308 308 308 308 307 305 306 306 308 309 311 313 313 313 313 313 313 313 313 313 313 314 314 314 315 315 316 317 317 317 317 318 317 316 317 317 316 316 316 315 312 311 310 309
309 306 305 307 308 307 308 308 306 307 309 309 309 309 309 309 308 307 310 310 312 313 313 313 313 313 313 313 314 314 315 316 316 317 316 316 316 316 316 316 314 315 316 315 316 315 315 315 313 312 310 309 309 309
307 307 305 305 305 304 304 304 305 307 311 311 310 312 312 310 309 309 310 311 313 314 313 313 314 314 314 314 314 315 315 315 317 316 316 315 314 314 313 313 311 311 311 310 309 309 309 310 310 310 309 310 310 310
304 304 305 304 304 304 308 310 312 312 311 311 312 313 313 311 312 311 312 312 312 313 314 314 314 315 314 314 315 315 315 315 315 314 313 312 312 311 311 310 310 309 309 309 310 310 310 310 310 310 310 310 310 310
306 307 306 309 310 309 311 313 312 311 312 312 312 313 311 311 312 313 314 313 313 313 314 315 315 313 312 313 313 314 315 314 314 312 310 309 309 309 309 309 309 309 309 309 310 310 310 311 311 311 311 311 310 310
311 310 312 313 313 313 312 311 311 310 310 310 311 311 311 311 311 311 311 310 312 313 313 313 312 312 312 311 310 310 310 310 310 310 310 310 310 310 310 310 310 310 310 310 309 308 308 309 309 309 310 310 310 309
312 312 312 311 311 311 311 310 310 310 310 309 309 309 310 311 311 312 311 309 309 309 310 309 309 309 309 309 309 310 310 310 311 310 310 310 311 311 311 311 311 311 311 311 311 311 310 310 310 310 310 310 309 307
311 311 312 313 312 312 311 311 311 311 311 311 311 310 310 310 310 310 310 310 311 311 310 310 310 311 311 311 311 310 310 310 310 311 311 311 311 311 311 311 311 311 311 311 311 310 310 310 309 309 308 308 307 305
312 312 312 312 312 312 312 312 312 312 312 313 312 312 312 312 312 311 311 312 311 310 310 310 310 310 311 311 310 310 310 310 309 309 308 309 309 310 311 311 310 310 310 310 309 309 309 308 307 307 306 305 304 303

GFSWCAN_850_thetae_033.txt.gz
Theta_e
300 300 301 301 300 300 299 297 299 300 297 296 296 296 296 296 297 299 308 309 308 308 308 310 311 311 312 315 318 319 324 323 323 322 322 324 323 324 326 326 334 326 327 325 329 332 331 335 338 348 335 329 347 345
300 300 300 301 301 300 299 297 298 298 297 296 295 296 296 296 296 304 310 309 309 310 309 309 309 308 309 312 314 315 320 324 327 328 325 326 324 324 328 330 329 331 328 326 325 327 346 347 348 350 341 349 346 344
301 301 301 302 301 300 299 297 298 297 297 296 295 296 296 296 296 297 303 308 309 311 312 313 312 314 310 308 311 313 319 319 322 324 327 328 331 327 328 332 333 331 335 332 332 339 346 347 346 346 347 346 345 345
301 303 303 301 300 300 299 297 298 298 298 296 295 295 296 296 296 297 298 307 310 311 312 315 315 315 315 313 310 310 310 313 319 321 324 324 325 326 327 329 330 331 335 338 338 340 340 342 342 342 343 344 344 346
301 300 300 300 301 299 298 297 298 298 298 296 295 295 296 296 296 298 304 309 310 311 312 313 316 316 315 312 313 313 310 312 317 320 321 319 320 322 323 326 329 332 335 336 338 336 339 337 337 340 343 343 343 343
297 299 300 300 299 299 297 297 297 297 298 296 295 295 296 295 298 310 312 311 311 311 312 315 316 316 315 315 314 313 310 312 316 316 318 320 319 323 325 326 330 334 331 332 332 332 335 338 338 330 341 342 342 342
301 300 300 299 299 297 297 297 297 297 297 295 295 295 295 295 299 306 311 312 311 309 313 316 318 318 317 316 314 312 312 313 315 315 316 317 318 321 323 322 328 329 327 329 331 331 334 332 336 335 337 338 339 340
302 301 301 300 297 296 296 297 297 297 296 295 295 295 296 301 302 306 308 308 306 307 312 316 319 318 317 316 315 313 313 314 315 316 316 317 318 321 323 322 322 325 324 324 326 329 328 328 332 333 332 334 335 336
302 303 301 301 298 297 297 297 297 296 294 295 295 300 304 305 309 311 309 306 306 311 313 315 317 320 317 318 319 319 319 319 318 318 318 318 318 321 323 319 320 323 325 323 324 324 325 326 330 331 331 329 330 331
302 302 302 302 300 296 296 297 297 295 295 295 302 307 309 310 309 308 310 311 311 312 312 314 315 321 315 317 319 317 318 321 323 320 318 319 318 318 319 320 320 324 323 322 322 322 322 324 326 328 327 327 327 330
302 302 301 301 300 296 297 297 296 295 295 299 305 309 310 308 309 311 312 312 313 314 313 312 312 318 317 319 320 316 321 322 322 321 322 322 322 324 324 323 322 322 321 320 320 320 321 321 322 323 326 326 325 327
302 302 301 301 299 296 297 297 295 296 303 305 305 308 309 310 311 312 313 313 314 316 316 315 314 317 318 319 319 318 320 322 323 321 324 323 324 323 323 322 322 322 321 321 321 321 321 322 321 321 323 326 325 330
302 302 301 301 298 297 297 297 295 299 303 304 306 309 309 310 309 312 313 314 316 315 317 317 319 318 318 318 320 319 318 322 322 323 324 324 323 323 322 321 320 320 320 320 320 321 321 321 322 322 323 324 326 323
301 301 301 299 297 297 298 296 295 298 301 307 309 304 311 311 312 312 314 317 316 317 318 317 317 318 318 319 320 320 321 322 323 323 324 324 320 320 320 320 319 319 318 318 319 320 321 321 320 320 322 322 324 324
300 301 299 298 299 298 297 295 295 295 305 308 310 308 309 310 312 315 314 315 316 317 317 317 317 317 318 320 320 320 321 322 323 324 323 320 319 320 320 320 319 317 316 316 316 318 319 319 320 321 321 323 325 325
300 298 298 299 298 297 296 295 294 302 306 309 310 310 311 313 312 314 315 316 316 316 316 316 318 318 319 319 319 320 321 323 321 319 320 319 320 319 317 316 315 315 315 315 315 318 317 317 318 319 318 322 323 323
298 299 299 298 297 296 294 295 301 305 307 309 310 309 310 312 314 316 316 315 315 316 318 317 318 318 318 319 318 321 321 319 318 318 317 317 315 314 315 315 314 314 315 315 318 319 319 319 320 321 322 322 321 319
300 299 298 297 295 294 300 303 306 306 307 308 309 312 312 315 314 313 315 315 315 315 315 317 316 317 317 318 320 318 317 318 317 316 315 314 313 314 314 315 317 316 315 317 318 319 319 320 322 318 320 318 316 318
299 297 296 295 298 302 304 305 307 308 308 309 310 312 313 314 314 314 313 313 313 313 313 314 316 316 318 318 318 317 316 316 316 315 315 314 314 315 318 319 320 320 319 320 321 321 321 321 319 318 319 318 319 321
296 295 295 299 302 305 307 307 307 310 311 311 313 313 313 312 312 313 313 312 312 312 313 314 316 317 317 316 315 315 315 315 313 314 314 314 315 317 318 319 320 320 320 320 319 319 319 319 320 319 320 320 320 321
295 298 302 303 305 306 307 308 308 309 310 312 312 312 312 313 312 312 312 311 310 311 312 315 315 315 314 313 312 313 314 314 314 314 314 314 316 317 318 318 319 318 317 318 318 318 318 317 318 318 319 320 321 321
301 302 304 304 306 308 307 308 309 310 311 311 312 312 312 313 312 309 309 311 313 313 313 313 313 313 312 313 314 314 314 314 314 315 315 315 316 316 316 316 316 316 317 317 317 317 318 317 317 317 316 316 317 317
303 304 306 307 306 305 305 307 310 311 311 311 311 310 311 311 308 307 309 308 309 310 311 311 312 313 313 314 314 313 313 314 315 316 316 316 316 316 317 316 316 315 316 316 317 317 316 316 316 315 315 315 314 314
302 305 306 306 305 305 308 309 309 310 310 310 310 310 309 308 306 307 307 307 309 311 313 312 312 313 314 314 313 313 314 315 315 316 317 317 317 316 316 316 316 316 315 313 313 313 313 313 313 313 312 312 312 312
305 302 305 304 307 309 310 309 309 308 308 310 310 309 308 306 307 306 307 309 311 313 313 313 313 314 314 313 314 315 315 316 316 316 317 317 317 316 315 314 315 314 314 314 314 315 315 315 314 313 313 311 310 310
305 305 306 309 309 309 310 308 308 308 309 309 309 309 307 308 308 308 310 310 312 313 313 313 313 314 314 314 315 315 316 316 316 316 317 316 316 315 315 315 315 314 313 314 315 317 316 315 312 311 310 310 310 310
305 308 308 308 309 308 307 307 307 308 310 311 311 311 311 311 311 310 310 312 313 313 313 313 314 314 315 316 316 316 316 316 316 316 315 316 316 316 315 313 316 316 317 318 315 313 313 311 310 310 310 310 311 311
305 306 306 307 307 306 308 308 309 310 312 312 312 314 313 312 312 311 312 313 314 314 314 314 314 315 315 316 317 315 314 314 315 315 315 314 314 313 312 311 310 311 311 312 315 314 313 311 312 312 312 312 312 312
305 306 306 308 309 309 309 311 314 313 313 314 314 313 312 312 312 313 313 314 315 314 314 315 315 315 316 317 316 315 315 315 315 311 310 309 310 310 310 310 310 310 310 312 312 312 312 312 312 312 312 312 311 311
310 309 309 311 312 314 314 314 313 313 313 313 313 312 313 313 313 313 313 314 314 315 316 316 315 316 316 317 316 315 313 312 312 312 312 312 312 312 312 312 311 311 311 311 311 311 310 310 311 311 310 311 311 311
313 311 312 313 312 312 312 313 313 313 313 313 313 313 313 313 313 314 313 313 314 315 315 314 314 313 313 312 312 313 313 312 312 312 312 312 312 312 312 312 312 312 312 312 312 312 312 312 312 312 312 312 311 311
314 313 313 312 311 312 311 311 311 310 311 312 313 313 314 314 314 313 312 313 313 315 315 313 313 311 312 312 312 312 312 312 312 313 313 313 313 313 313 313 313 312 312 312 312 312 312 311 311 311 311 310 310 309
315 314 314 314 314 314 314 313 313 313 313 313 313 312 312 312 312 312 312 312 312 312 311 312 313 312 312 312 312 312 312 311 312 312 312 312 312 312 312 312 311 311 311 311 311 310 310 310 309 309 308 308 307 306

GFSWCAN_850_thetae_036.txt.gz
Theta_e
300 300 300 300 301 301 300 299 297 298 298 296 296 296 296 297 297 304 309 309 309 309 305 305 310 309 309 311 313 316 318 321 321 318 318 318 318 318 321 320 323 319 318 321 323 327 327 330 337 333 328 338 335 333
300 300 300 300 301 301 301 300 297 298 297 297 296 296 296 296 297 300 309 307 309 308 306 307 308 309 308 310 310 314 320 320 324 323 322 322 319 320 319 322 323 326 319 319 320 322 334 347 342 334 337 339 337 333
300 300 301 301 301 302 301 300 298 298 297 297 296 296 296 296 296 297 300 304 307 310 310 311 308 313 312 308 309 311 315 316 320 321 324 321 326 321 326 327 327 326 329 328 327 337 340 343 344 345 345 344 340 340
301 301 302 302 303 302 300 299 298 297 298 297 296 296 296 296 296 297 298 305 309 310 309 314 313 313 314 314 309 309 310 311 313 319 321 318 320 320 318 322 324 326 329 330 332 333 336 337 336 337 343 342 344 342
302 302 300 300 301 300 301 299 297 297 298 298 296 295 296 296 296 300 305 309 309 309 310 311 314 316 315 314 312 312 311 309 311 318 316 315 317 318 320 318 324 330 329 331 332 334 336 336 338 334 339 342 340 339
298 298 300 301 301 300 300 299 297 297 298 297 296 295 296 296 297 310 311 310 310 310 310 308 315 315 315 314 315 312 312 310 311 317 315 317 319 318 318 320 329 331 332 331 331 334 336 336 335 335 337 337 338 338
300 298 298 298 300 300 298 297 296 297 297 297 296 295 296 296 296 306 311 311 310 310 309 312 313 317 315 315 315 313 312 310 312 314 313 314 315 316 316 317 328 329 327 328 329 329 332 334 334 332 329 329 335 337
301 301 301 300 301 299 297 296 297 297 297 296 295 296 296 297 300 303 305 308 307 306 310 310 312 318 317 316 315 314 312 312 312 314 315 314 315 317 317 319 322 325 325 325 327 327 328 333 332 330 329 331 330 331
302 302 302 301 301 301 297 296 297 297 296 295 296 297 302 303 308 311 309 307 305 310 312 312 312 314 316 318 318 318 317 312 315 313 313 314 311 314 316 320 319 322 325 324 325 325 324 325 327 328 328 327 328 329
302 302 302 303 302 301 297 296 296 296 295 295 301 307 308 310 309 309 308 311 311 310 310 311 314 315 314 317 317 316 317 318 316 314 317 312 312 316 318 320 321 323 322 322 321 321 321 322 322 323 324 327 325 328
302 302 302 301 302 301 297 296 297 295 295 299 305 308 311 310 307 310 311 311 312 311 312 312 311 310 316 315 315 317 315 315 317 315 315 315 316 322 321 322 321 321 321 321 321 321 321 321 321 321 322 323 326 328
299 301 302 302 302 302 296 297 296 295 300 304 305 307 308 308 310 310 309 311 310 312 313 312 312 313 317 318 318 318 319 318 319 319 321 319 317 321 320 320 320 320 320 320 320 321 321 321 321 322 322 324 326 326
299 300 302 302 301 300 297 297 296 298 303 303 305 307 309 309 308 310 311 312 311 313 317 317 317 317 318 318 316 314 316 316 320 322 321 318 320 320 320 320 320 319 319 318 318 319 319 321 321 320 321 322 324 325
299 301 302 300 301 298 297 297 296 299 302 306 308 301 306 306 308 309 308 312 315 317 317 317 317 317 317 316 317 318 317 318 321 320 321 318 320 320 320 319 318 318 317 316 316 315 314 314 319 320 320 321 321 322
299 301 300 300 300 297 297 297 295 298 304 306 308 302 307 309 310 313 313 314 315 316 317 316 316 316 313 316 315 315 319 320 319 319 316 320 320 320 319 318 317 315 315 314 314 314 315 316 317 318 319 320 321 322
297 301 301 300 298 298 297 296 295 297 305 307 308 309 310 311 312 313 313 314 316 316 316 316 315 313 315 314 317 318 319 319 319 317 319 318 317 316 314 313 314 315 314 314 314 315 315 316 317 317 318 318 318 318
300 301 299 298 298 297 296 294 296 303 306 308 309 310 312 311 313 314 315 315 315 316 313 314 315 316 314 316 317 315 316 316 318 317 317 316 314 313 313 314 315 316 317 316 315 317 318 318 318 319 319 321 321 320
300 299 299 298 297 296 294 302 303 305 306 307 308 310 312 313 313 314 314 314 314 315 315 314 315 314 314 318 318 316 317 317 316 316 315 314 314 314 316 319 319 318 316 315 317 318 318 318 319 320 318 317 317 320
299 298 297 296 295 300 302 303 306 307 308 308 308 310 313 313 313 313 313 312 313 312 313 314 313 312 314 315 315 315 315 315 315 314 313 314 314 316 318 318 320 321 320 320 321 321 320 320 320 319 320 318 318 318
298 296 295 296 302 305 307 306 306 308 309 311 312 312 312 313 312 312 312 312 312 312 312 311 314 316 316 315 314 314 314 314 314 314 314 314 316 317 319 319 320 320 320 319 318 319 318 318 318 321 319 319 320 319
295 295 299 302 303 305 306 307 308 309 309 311 312 312 312 312 312 312 311 310 310 311 311 314 314 313 313 313 312 313 314 314 314 314 314 315 316 317 318 318 318 318 319 318 318 318 318 318 319 318 318 319 319 319
298 302 302 302 304 307 307 308 308 309 310 311 312 312 312 311 310 308 309 309 311 312 312 312 312 312 311 311 313 314 314 314 314 315 315 316 316 316 316 316 316 317 317 318 317 317 318 317 317 319 319 318 318 316
302 304 305 306 307 305 305 306 309 310 310 311 311 310 309 309 307 307 308 308 309 310 310 312 312 312 313 314 314 313 314 315 316 316 316 316 317 316 316 316 316 316 317 317 317 316 316 316 315 316 316 316 315 314
302 304 306 307 306 304 307 309 309 309 309 308 307 308 308 307 307 307 307 308 310 311 312 312 312 313 314 314 313 314 314 315 316 317 317 315 316 316 316 316 316 315 314 314 314 314 313 313 313 313 312 312 312 313
305 301 305 305 305 308 309 309 307 306 305 307 307 308 308 307 306 306 306 309 311 313 313 313 313 313 314 313 314 315 315 316 317 317 317 315 315 315 314 313 313 312 313 313 313 312 312 312 312 312 311 311 311 310
301 304 306 308 309 308 306 305 303 306 307 308 308 308 307 307 308 307 308 310 312 313 313 313 314 314 314 315 316 316 316 317 316 316 316 315 314 313 313 313 313 314 315 316 316 316 316 316 314 313 312 310 310 310
303 306 308 308 308 308 306 307 307 307 309 309 310 310 310 311 309 310 310 313 313 313 313 313 314 314 315 316 316 316 316 316 316 316 316 316 315 315 313 315 315 315 316 314 314 315 312 310 310 310 310 310 310 310
306 306 303 306 306 306 308 308 308 309 310 311 311 313 313 312 312 311 312 313 314 313 314 315 315 315 316 316 316 316 316 316 316 316 315 315 315 312 310 311 313 312 311 314 316 316 313 313 311 311 312 311 311 311
306 306 306 307 308 308 309 310 312 312 312 312 314 313 312 312 312 312 313 313 313 314 314 315 315 316 316 316 316 316 315 314 315 313 310 309 310 310 310 309 310 310 311 312 312 312 312 312 312 312 312 311 311 311
310 308 308 310 310 311 312 312 313 313 313 314 313 313 313 313 313 314 314 314 314 314 314 315 316 316 317 317 315 315 314 315 315 313 310 311 311 311 311 311 311 311 312 312 312 311 310 311 311 311 310 311 311 311
312 310 310 312 313 313 313 313 313 313 313 313 313 313 313 314 314 314 314 314 314 315 316 316 316 316 315 316 316 315 312 312 312 312 312 312 311 312 312 312 312 312 312 312 312 312 312 312 312 312 311 311 311 311
314 313 312 311 313 313 313 313 313 314 313 313 313 313 313 314 314 313 313 313 313 313 313 314 314 313 312 312 313 313 312 312 313 312 313 312 312 312 313 313 313 312 312 312 312 312 312 311 311 311 310 310 310 309
314 314 313 313 313 313 313 313 311 311 312 312 312 313 314 314 313 311 311 311 312 312 313 313 313 312 312 312 312 312 312 311 312 312 313 313 313 313 313 312 310 311 311 311 310 309 309 309 309 309 308 308 307 307

GFSWCAN_850_thetae_042.txt.gz
Theta_e
305 301 300 300 300 300 301 301 300 299 297 298 297 297 297 297 297 300 306 307 306 307 305 305 306 308 308 308 308 311 317 319 322 316 315 315 315 315 317 317 319 317 317 319 320 322 324 336 329 326 321 326 329 334
305 301 300 300 300 300 300 301 301 299 298 297 297 297 297 297 297 297 300 303 305 304 304 303 303 304 306 307 307 309 317 317 321 321 320 318 320 317 315 318 319 322 317 320 318 319 326 339 339 337 336 337 335 332
303 301 300 300 300 300 300 301 302 300 298 297 297 297 296 296 297 297 297 298 299 304 306 309 312 311 308 308 308 309 313 314 315 319 320 318 321 315 320 323 321 321 324 324 331 332 337 335 338 340 342 341 338 338
303 301 300 300 300 301 301 302 302 300 299 297 297 297 296 296 296 297 297 299 304 307 307 311 313 311 311 310 308 308 308 309 310 315 317 314 318 314 314 315 318 320 324 328 327 330 334 333 336 339 342 342 341 338
306 302 300 300 300 301 302 302 303 300 299 297 297 297 296 296 296 299 305 306 308 307 307 307 310 314 314 314 312 311 310 309 309 310 313 314 313 313 312 314 322 327 324 327 329 329 331 332 336 337 338 340 340 339
304 303 301 300 300 302 301 300 300 300 299 297 297 297 296 296 296 306 308 308 309 308 308 303 309 313 313 313 312 313 312 311 310 313 312 313 316 314 313 316 324 329 330 330 330 334 333 334 334 336 337 338 338 336
303 302 300 301 302 302 300 301 300 300 298 296 297 297 296 296 296 303 308 310 309 308 308 307 309 315 315 312 314 313 312 310 309 309 309 310 312 312 312 316 324 329 328 329 331 332 332 333 331 331 330 333 335 334
301 302 302 301 299 298 299 300 300 298 297 296 297 296 296 296 297 299 305 306 307 306 307 305 308 313 315 313 314 313 311 310 310 311 311 311 310 310 308 313 316 316 327 329 330 328 329 330 330 330 330 330 330 331
302 300 300 300 298 298 298 300 299 297 296 296 296 296 297 300 307 309 309 308 307 306 310 308 308 311 315 316 315 314 312 307 310 309 309 310 307 310 307 314 317 316 323 327 329 329 330 328 328 327 327 326 326 327
299 300 300 301 301 301 301 301 299 296 296 296 296 304 306 307 309 309 308 308 309 306 306 307 310 309 314 315 314 312 314 312 313 311 311 309 309 313 318 319 319 319 319 324 328 329 327 325 324 323 322 322 321 322
301 301 301 301 301 301 301 301 297 296 296 296 304 306 307 309 308 308 309 309 308 309 309 308 308 309 314 313 311 313 310 311 315 313 313 311 316 316 318 319 320 320 320 325 324 323 322 321 320 321 320 320 320 321
301 302 301 301 301 302 301 301 297 296 295 302 305 306 308 307 307 308 305 307 306 309 310 310 310 309 313 317 314 315 313 312 316 314 316 316 316 317 318 318 317 317 319 320 320 320 320 320 321 321 321 321 321 321
299 301 302 302 302 302 302 301 297 295 301 304 304 305 307 307 307 308 309 308 307 310 311 311 310 315 316 316 315 312 314 313 315 316 318 316 318 319 318 318 318 317 317 316 316 315 315 316 317 319 320 320 321 321
300 300 301 303 301 301 301 300 296 296 302 304 306 301 303 305 304 305 305 305 310 311 314 314 314 314 315 316 314 317 314 315 318 318 320 319 319 319 319 317 315 315 314 314 313 313 314 314 314 314 314 314 316 319
298 301 301 302 301 301 301 297 296 299 301 305 306 306 305 307 307 308 309 309 310 312 315 314 313 312 312 314 312 314 316 318 317 318 316 319 319 317 315 313 313 313 314 314 315 314 314 314 314 314 314 314 314 314
299 300 301 301 300 301 297 297 296 300 302 305 305 306 308 306 307 309 310 310 312 314 314 313 312 312 313 311 315 316 317 316 315 313 318 318 316 315 313 313 314 317 318 317 317 316 316 317 315 314 315 316 316 317
299 300 300 300 300 297 297 296 298 301 303 305 306 307 307 307 307 310 313 314 313 314 312 312 313 313 310 312 316 313 314 312 316 317 316 315 314 312 313 314 317 318 320 316 315 315 315 315 316 316 316 317 318 318
299 300 300 300 297 297 295 296 297 300 303 305 305 307 307 309 311 312 313 312 312 313 312 313 312 312 313 316 314 312 315 316 316 315 313 312 313 313 314 317 318 319 320 319 320 320 319 320 318 318 318 318 317 317
301 301 300 297 296 295 297 299 304 305 306 306 307 307 310 311 312 312 310 312 311 311 312 311 309 310 312 312 313 315 315 314 313 312 313 314 314 314 317 319 318 319 319 318 318 317 317 316 317 317 317 317 319 319
300 298 297 296 299 303 303 303 303 305 306 308 309 310 311 312 311 310 310 311 311 311 310 310 310 313 314 314 314 313 312 312 313 314 314 314 314 316 318 318 318 317 317 317 316 315 315 315 315 316 317 317 317 317
298 297 296 299 302 303 304 306 306 306 308 309 311 311 311 311 311 311 311 310 309 309 311 313 314 314 314 313 313 312 312 313 314 313 314 315 316 316 317 317 317 317 317 317 317 317 316 315 316 317 316 316 316 316
296 295 296 301 302 304 306 306 307 308 308 310 311 311 311 309 308 307 308 308 309 311 312 312 312 312 312 312 311 311 313 313 314 316 316 316 316 316 316 316 317 317 317 317 316 317 317 316 316 316 316 315 316 316
299 301 302 303 304 305 306 307 308 309 309 310 309 309 306 307 306 306 306 307 307 309 310 310 311 311 311 311 311 313 314 315 316 316 316 316 316 316 316 316 316 315 316 315 315 316 316 315 315 314 314 315 315 315
302 302 304 305 305 302 305 306 307 306 307 306 305 306 304 306 306 306 303 306 308 310 310 312 312 313 313 313 313 313 315 316 316 315 316 317 316 316 315 314 314 313 314 314 314 314 313 312 311 310 310 310 310 311
303 301 304 304 305 306 306 306 303 302 303 303 305 303 305 307 305 306 306 308 309 311 312 313 313 313 313 314 313 314 316 317 316 315 315 315 315 313 311 311 311 312 312 311 311 312 312 312 311 309 308 308 308 308
296 304 305 306 306 305 302 303 301 303 303 305 305 307 307 307 308 308 308 310 311 312 313 313 313 313 314 313 315 316 317 316 315 314 313 313 312 312 313 314 315 315 315 315 315 315 314 311 310 309 309 309 310 310
302 303 306 306 306 306 304 305 305 305 307 307 308 309 309 310 310 309 310 311 312 313 313 313 314 314 315 315 316 316 316 315 314 313 312 312 312 313 313 314 313 313 313 314 315 314 310 309 310 310 310 309 309 309
305 305 304 305 305 304 306 307 306 307 308 308 310 312 312 311 311 311 312 312 312 313 313 313 315 315 315 316 316 315 315 315 315 315 314 314 313 311 312 314 313 313 313 312 311 311 311 311 311 311 311 310 310 310
306 305 304 306 306 306 307 308 310 309 309 310 312 313 312 311 312 311 312 313 314 313 314 315 315 316 315 315 315 314 314 314 314 314 312 311 311 311 310 309 310 311 310 311 311 311 311 311 311 311 310 310 310 310
307 306 307 308 309 310 310 310 310 312 313 312 312 312 312 313 313 313 313 314 314 315 315 315 315 316 316 316 315 315 314 313 312 311 310 311 311 310 310 310 310 310 310 310 310 310 310 311 311 310 310 310 310 310
310 308 308 310 312 313 313 313 313 313 313 313 313 313 313 313 313 313 314 315 315 315 315 316 315 315 315 314 314 312 312 312 313 313 314 311 310 311 311 311 311 311 311 311 311 311 310 310 310 310 310 310 310 310
311 310 310 310 311 312 312 313 313 313 314 314 314 313 313 314 314 314 314 315 315 315 314 313 313 313 314 314 314 314 314 314 312 311 311 312 311 311 311 311 312 312 312 312 311 311 311 312 311 310 309 310 309 309
313 313 313 312 312 312 313 312 312 313 313 313 313 313 313 313 312 311 313 313 312 312 312 312 312 312 312 312 312 313 314 314 312 311 311 311 312 312 312 312 312 312 310 310 310 311 310 309 308 308 307 307 307 306

GFSWCAN_850_thetae_045.txt.gz
Theta_e
309 311 306 300 300 300 300 301 300 300 298 297 298 298 298 297 298 297 301 304 304 305 305 305 305 308 308 308 313 311 320 322 326 323 323 321 322 322 323 322 324 325 327 327 329 331 330 338 335 333 335 336 336 337
309 310 305 300 300 300 300 300 301 301 299 297 297 297 297 297 297 297 298 299 302 303 304 303 303 304 304 304 305 308 317 318 321 326 326 324 326 324 324 327 325 328 328 329 327 327 333 339 340 340 341 339 338 336
310 309 304 300 300 300 300 300 301 302 300 298 297 297 297 297 297 297 297 298 299 303 304 308 312 312 309 308 308 310 311 311 313 318 323 324 326 322 327 328 327 328 327 333 335 337 339 338 337 339 341 342 338 334
311 306 303 300 300 300 300 301 301 302 300 299 297 297 297 296 297 297 299 299 304 305 308 310 313 311 312 310 308 308 308 308 309 311 319 322 324 317 322 322 325 326 329 335 337 335 336 335 337 339 342 340 338 338
307 304 303 301 300 300 300 301 302 302 301 299 297 297 297 296 297 299 303 305 307 306 309 307 308 312 314 313 310 310 309 309 309 310 318 320 317 319 317 320 326 330 331 332 337 334 336 335 336 339 342 341 339 338
305 306 304 301 300 300 300 301 302 302 300 299 297 297 297 296 297 304 307 307 308 308 308 309 308 312 313 314 312 312 312 311 310 313 313 314 314 317 321 323 329 330 330 330 333 333 334 334 334 336 338 339 338 334
306 306 305 302 300 300 301 302 301 300 300 299 297 297 297 296 297 303 308 309 308 307 307 309 311 314 314 312 312 313 311 310 309 308 310 311 314 314 320 322 329 329 328 329 331 331 332 331 332 331 333 334 333 331
305 304 303 301 300 301 302 300 301 300 299 298 297 297 296 296 297 298 306 306 306 305 306 309 312 314 315 313 315 313 311 310 310 312 312 313 310 312 315 318 316 317 321 327 330 330 328 330 330 330 330 329 330 330
303 302 302 302 302 301 299 299 299 300 298 296 297 296 296 299 307 306 307 307 307 305 310 311 314 319 314 315 313 314 311 313 309 313 313 313 314 313 313 317 319 320 319 322 326 330 329 329 328 328 327 324 322 320
302 302 302 301 299 299 298 299 300 300 296 296 296 302 305 307 309 309 308 307 308 306 305 309 309 316 315 316 318 317 315 319 319 316 311 315 315 314 318 318 319 318 318 321 326 329 329 328 327 325 323 321 320 318
300 299 299 300 300 300 300 301 301 297 296 296 303 306 307 309 308 307 308 310 309 310 308 307 308 312 313 319 320 314 318 318 321 318 317 317 318 320 318 318 317 318 319 320 323 324 324 323 322 321 321 320 320 320
301 301 300 301 301 301 301 301 299 296 295 300 305 307 307 308 307 309 310 308 310 311 310 311 311 308 312 316 318 317 319 318 320 318 322 322 321 318 318 318 317 316 316 317 318 319 320 320 321 321 321 321 321 321
300 300 301 302 301 301 301 301 298 296 298 304 305 306 307 307 307 308 310 311 312 311 312 312 312 312 315 317 317 318 319 319 318 322 322 321 319 319 318 318 317 316 315 315 315 315 315 315 315 316 317 317 318 319
300 300 301 301 302 301 302 302 297 296 303 304 306 305 308 308 308 308 310 310 310 310 314 315 316 316 316 318 318 317 318 318 320 321 322 321 319 319 319 316 314 313 313 313 313 313 313 313 313 313 314 314 314 315
297 299 302 302 302 302 301 300 296 298 302 305 306 307 308 308 307 308 308 308 309 309 313 314 314 314 316 317 317 317 319 319 320 322 321 319 318 319 316 314 312 312 315 316 317 317 316 316 316 316 315 315 314 314
298 301 301 302 300 301 300 297 296 301 303 304 305 308 308 308 309 309 310 310 310 313 313 313 315 316 317 316 317 318 319 320 320 320 319 318 317 315 313 312 313 315 317 318 317 315 315 315 315 315 315 315 315 316
298 301 300 301 301 300 297 296 299 300 303 305 307 307 307 308 309 310 312 313 313 313 317 316 316 317 314 317 318 318 319 318 317 318 316 315 313 312 313 314 316 318 318 319 319 319 319 319 318 317 316 316 317 317
300 301 300 300 299 297 296 298 299 300 303 305 306 307 307 307 311 312 312 312 312 314 313 316 313 316 317 317 319 318 317 316 315 315 313 312 313 314 314 316 318 318 319 319 318 318 318 317 318 318 318 318 318 317
300 300 300 298 296 296 297 299 303 305 306 306 306 307 310 310 312 311 309 310 310 311 312 312 315 316 318 316 316 316 315 314 314 312 312 314 314 314 315 318 318 317 318 317 317 317 316 315 315 316 316 316 316 316
299 298 297 295 299 301 301 301 302 304 307 308 308 310 310 311 311 310 309 309 310 310 312 315 316 316 316 314 314 313 312 312 312 313 314 314 314 315 316 317 318 317 317 317 316 315 315 315 315 316 315 315 315 317
297 297 296 302 303 303 304 305 304 306 307 308 310 310 311 310 309 310 310 310 310 310 314 314 314 314 314 313 313 312 311 311 313 314 314 315 315 315 316 317 317 317 316 316 316 317 316 316 316 316 314 315 315 315
297 296 296 301 302 304 306 306 306 307 308 310 311 311 311 311 309 308 308 309 310 311 311 312 313 312 311 311 312 312 311 313 314 315 315 316 316 316 316 316 316 316 316 316 316 316 316 315 315 315 315 315 315 315
296 299 303 303 304 304 305 306 308 309 310 310 309 310 308 307 306 307 308 307 307 308 310 310 310 311 311 311 311 311 313 314 315 316 316 316 316 316 316 315 315 316 315 316 315 315 313 313 313 312 313 313 314 314
299 300 303 304 304 305 305 307 307 307 307 307 308 309 308 307 306 307 308 307 307 309 310 311 312 313 313 313 313 313 314 315 315 316 316 316 315 315 314 314 314 313 313 313 312 311 310 310 310 310 311 311 311 311
302 301 303 303 303 306 307 307 305 306 307 307 307 307 308 306 309 306 306 309 309 309 311 312 313 313 313 314 313 315 316 316 315 315 316 314 312 311 311 311 311 311 311 312 311 311 311 310 309 309 310 309 308 309
300 305 306 307 306 308 305 306 305 306 307 308 308 308 308 309 309 309 310 310 310 312 313 313 313 313 314 314 315 316 316 315 315 314 312 311 312 313 314 315 315 315 315 316 315 314 311 309 309 309 310 310 310 310
303 305 305 305 305 305 305 305 305 307 307 309 309 309 310 311 311 310 310 311 311 313 313 313 314 314 314 315 316 315 314 313 313 311 312 313 313 313 313 314 313 312 312 313 312 309 309 310 310 310 310 310 310 310
304 304 304 305 305 304 305 307 307 308 308 309 310 312 312 312 312 310 311 312 313 313 313 314 315 315 316 316 316 315 315 314 314 313 313 313 312 311 313 313 312 312 312 312 311 311 311 310 310 311 310 310 310 310
306 305 304 305 305 305 306 308 310 310 309 310 311 312 312 312 312 311 312 312 313 313 313 315 315 315 315 315 315 315 315 315 315 315 315 314 313 312 310 310 311 310 310 311 310 310 310 311 311 310 310 310 310 310
307 306 306 307 308 309 309 308 309 310 312 311 310 312 312 312 313 312 313 313 313 314 315 315 314 315 315 314 314 313 313 313 312 312 312 311 311 309 309 309 309 310 311 311 310 310 310 310 310 310 309 309 310 310
310 307 308 309 311 312 312 313 313 312 313 313 312 312 312 313 313 314 314 314 314 315 315 315 315 315 315 315 315 314 312 312 313 313 312 311 311 311 311 311 311 311 311 311 311 311 311 310 310 311 310 310 310 310
311 310 310 311 311 312 313 313 313 313 313 313 313 314 314 314 314 315 315 315 315 315 315 314 313 313 314 313 313 313 314 314 314 312 311 311 313 311 310 311 311 311 312 312 311 311 311 310 309 309 308 308 307 307
312 313 312 312 312 313 312 312 313 314 314 313 313 314 313 313 314 314 314 315 315 314 313 312 312 312 312 312 312 312 313 314 313 311 311 311 311 312 312 312 312 312 311 310 310 310 309 308 308 307 307 307 306 306

GFSWCAN_850_thetae_048.txt.gz
Theta_e
311 310 309 310 302 300 300 301 301 300 299 298 298 298 299 299 299 299 300 301 304 309 309 309 309 311 313 313 319 317 324 326 328 328 327 327 326 327 328 329 330 331 330 330 333 332 334 340 336 336 345 342 340 339
311 310 309 309 302 300 300 300 301 301 300 298 298 298 299 298 299 299 301 299 300 303 309 305 305 305 307 308 309 315 320 322 320 329 328 329 328 327 331 327 329 330 335 330 333 333 341 343 343 343 346 346 343 341
311 311 309 309 302 300 300 300 300 302 301 299 297 298 298 298 298 299 299 299 301 307 309 310 314 313 309 308 310 314 316 314 315 315 324 327 331 328 328 330 331 333 333 333 334 339 341 343 343 344 346 346 342 341
310 310 309 309 301 300 300 300 301 302 302 300 298 298 298 298 298 298 300 300 303 308 310 314 312 313 312 311 309 311 311 310 309 314 321 326 327 323 326 327 329 331 333 337 335 338 338 341 343 344 346 345 343 340
310 310 310 306 300 300 300 300 301 302 302 301 298 297 297 297 297 300 302 304 306 309 312 311 311 313 314 312 310 311 312 313 313 314 319 324 322 324 324 325 325 329 333 331 335 339 340 342 342 344 345 344 344 342
309 309 309 303 300 300 300 300 301 302 303 301 299 297 297 297 297 303 309 306 306 308 311 312 312 314 316 313 312 314 315 314 314 313 314 318 319 321 324 324 329 331 333 333 336 337 339 340 340 341 343 343 342 341
309 308 305 301 300 300 300 301 301 302 300 301 299 297 297 297 297 303 308 310 308 307 311 312 313 316 316 315 315 315 313 313 312 313 312 314 318 318 322 323 324 330 330 332 333 335 334 336 336 337 339 338 337 336
304 304 304 304 301 300 300 301 302 301 301 299 298 297 297 297 297 300 308 307 306 306 309 313 314 317 317 316 316 316 315 314 313 313 313 312 313 316 318 318 323 324 324 325 329 333 331 333 334 334 334 334 334 334
305 306 305 303 302 300 301 302 300 300 300 298 297 297 296 298 306 308 303 306 305 307 312 312 314 318 317 317 317 317 316 317 314 314 313 314 314 315 315 318 319 323 324 324 323 326 328 332 332 332 331 327 327 326
305 304 303 302 302 302 302 299 299 299 299 296 296 303 305 306 307 306 307 310 310 309 308 311 312 318 318 319 319 318 318 319 319 317 316 315 315 316 318 321 322 322 323 323 322 321 324 330 331 329 328 327 326 325
302 302 302 301 302 300 299 299 299 300 297 296 302 307 307 308 309 309 310 310 310 311 309 309 310 313 316 320 319 318 320 320 321 320 318 319 318 319 321 322 322 322 322 324 326 326 327 328 327 327 327 326 326 326
302 302 302 301 300 299 299 300 301 298 298 299 306 307 308 309 308 310 310 311 311 311 311 312 311 309 314 318 319 319 320 319 320 320 320 319 323 322 322 322 321 321 320 320 321 322 322 322 322 323 324 325 325 325
300 300 300 300 300 300 301 301 299 297 297 304 306 308 309 308 311 310 310 311 313 312 314 316 316 311 314 319 319 320 319 319 319 321 321 324 322 322 322 322 321 319 319 319 319 319 319 319 319 320 320 321 321 321
300 301 300 301 301 301 301 301 296 296 303 306 308 307 309 309 309 309 311 312 313 314 316 317 316 315 317 318 317 318 319 319 320 320 322 324 322 322 321 317 317 318 318 319 320 320 320 320 320 320 320 319 319 320
301 300 301 302 302 301 301 301 296 300 303 307 308 311 309 309 309 310 311 312 312 313 315 318 317 317 318 318 317 318 318 319 319 322 323 321 321 319 318 318 317 317 318 319 321 321 320 320 319 319 320 320 320 319
297 299 301 301 302 302 302 301 296 300 303 306 307 309 309 311 311 312 312 313 314 315 317 317 317 318 318 317 317 317 317 319 321 322 321 321 320 320 318 317 318 318 319 320 320 319 320 320 320 320 320 319 319 320
296 299 300 301 302 302 301 297 298 300 305 307 309 309 310 311 313 314 314 315 316 317 319 317 317 317 317 318 317 317 319 321 320 320 320 319 318 317 318 318 318 318 319 318 320 318 318 318 319 318 318 318 317 318
299 302 302 301 301 299 297 298 300 302 306 307 309 309 310 311 312 314 315 316 316 317 316 317 316 318 318 318 318 320 319 319 319 319 317 317 317 318 318 317 317 317 318 319 319 318 318 319 319 317 317 318 317 317
300 301 301 300 298 298 298 300 302 306 307 308 309 309 311 313 314 313 313 313 313 315 316 316 317 317 318 318 318 319 319 318 318 317 316 317 318 318 317 317 318 318 318 318 317 317 317 317 316 316 316 316 316 316
300 300 297 296 298 302 302 303 302 306 309 310 311 312 313 313 311 311 312 313 313 314 316 317 317 318 318 318 318 318 317 316 314 315 316 317 316 315 315 316 317 318 318 317 317 316 316 316 316 316 315 315 316 315
298 296 299 302 303 304 305 306 306 308 310 311 312 312 312 313 312 311 313 313 313 314 316 316 317 317 317 317 316 316 316 315 313 314 316 315 315 316 316 317 317 317 317 317 316 316 316 315 315 314 315 315 315 315
299 298 300 302 304 306 307 307 309 310 311 312 313 313 313 313 313 312 311 313 314 314 314 315 315 315 314 314 314 314 314 312 314 316 315 315 316 316 316 316 316 316 316 316 316 315 315 314 315 315 315 315 315 314
297 302 304 304 306 306 308 308 310 311 312 312 311 312 313 312 311 310 312 313 313 312 313 313 312 312 313 314 313 313 313 314 315 315 315 316 316 316 316 316 316 316 315 315 314 313 313 314 312 311 312 312 314 314
301 302 305 306 306 308 308 309 310 310 310 310 311 312 312 312 310 311 313 311 311 311 311 312 313 315 314 313 314 314 314 315 315 315 316 316 316 316 316 316 316 316 314 314 314 313 313 313 313 313 313 313 313 312
302 302 304 303 306 309 310 309 309 310 310 310 310 310 310 310 311 311 310 312 312 312 313 314 313 313 314 314 314 315 315 316 316 316 315 315 314 314 313 313 314 314 313 313 312 312 313 312 312 311 311 311 312 312
305 306 306 309 309 310 310 310 309 310 310 310 309 310 311 311 311 312 313 313 313 313 315 314 313 313 314 314 315 316 315 316 317 315 315 315 313 313 314 314 313 314 315 314 314 313 313 312 312 312 312 312 311 312
305 307 307 306 308 308 309 309 309 309 309 309 310 311 312 312 312 312 312 313 313 314 313 313 314 314 314 314 316 316 317 317 315 314 315 315 315 314 314 314 313 313 312 314 315 314 314 313 313 313 313 313 312 313
307 305 307 306 306 307 308 309 309 310 310 310 312 313 313 313 314 313 311 312 313 313 313 314 314 314 314 316 317 316 316 316 315 316 315 315 315 315 315 315 313 310 312 311 311 313 313 313 313 312 312 312 311 311
307 307 306 307 306 307 308 309 311 311 311 312 312 312 312 312 312 312 311 312 313 313 315 315 314 315 316 315 315 317 317 316 315 315 315 314 314 313 313 312 312 312 312 311 310 310 311 312 311 312 311 311 311 312
308 307 307 307 308 309 310 310 310 311 311 311 310 310 311 312 313 312 313 313 313 314 314 315 314 315 315 315 315 315 315 315 315 314 313 312 312 312 312 311 311 311 312 311 312 312 311 310 311 311 311 312 312 312
309 307 307 308 310 312 312 312 312 312 312 313 312 312 313 313 313 312 313 314 313 313 313 314 316 316 316 315 315 315 315 314 314 313 314 314 313 312 312 312 312 312 312 312 312 312 312 312 312 312 312 312 312 311
311 310 311 312 312 313 313 313 313 313 314 313 314 314 314 314 314 314 312 313 316 317 317 316 316 316 316 315 314 313 313 315 316 314 311 312 314 314 313 312 312 313 313 313 313 312 312 312 311 311 310 310 310 309
314 314 315 315 314 315 314 315 315 315 315 315 316 316 315 315 316 316 315 315 317 317 317 316 315 315 313 312 312 312 312 314 313 311 311 311 311 314 315 313 314 313 313 312 311 311 310 310 309 309 309 309 308 308